Regional Weather Roundup
Issued by NWS Goodland, KS

Home | Current Version | Previous Version | Graphics & Text | Print | Product List | Glossary On
Versions: 1 2 3 4 5 6 7 8 9 10 11 12 13 14 15 16 17 18 19 20 21 22 23 24 25 26 27 28 29 30 31 32 33 34 35 36 37 38 39 40 41 42 43 44 45 46 47 48 49 50
000
ASUS43 KGLD 261808
RWRGLD

GOODLAND FORECAST AREA HOURLY WEATHER ROUNDUP
NATIONAL WEATHER SERVICE GOODLAND KS
1200 PM MDT WED APR 26 2017

...OFFICIAL OBSERVATIONS...

CITY           SKY/WX    TMP DP  RH WIND       PRES   REMARKS
GOODLAND KS    SUNNY     49  31  49 N18G28    29.76F
HILL CITY KS   PTSUNNY   51  31  46 N14G25    29.76F
IMPERIAL NEB   SUNNY     47  32  56 N15G23    29.77F
MCCOOK NEB     SUNNY     48  31  51 N15G24    29.76F
AKRON CO       SUNNY     50  28  42 N16G24    29.77F
BURLINGTON CO  NOT AVBL
LIMON CO       SUNNY     50  29  44 N14G22    29.79F
$$

...UNOFFICIAL OBSERVATIONS...

CITY           SKY/WX    TMP DP  RH WIND       PRES   REMARKS
LENORA KS        N/A     46  32  58 MISG        N/A
NORTON KS      PTSUNNY   48  30  49 N17G25    29.74F
SHARON SPRINGS   N/A     50  34  54 NW15G28     N/A
TRENTON NEB      N/A     45  32  60 N12         N/A
KIT CARSON CO    N/A     49  33  53 MISG        N/A
YUMA CO        FAIR      46  32  57 NW16G23   29.77
$$




USA.gov is the U.S. government's official web portal to all federal, state and local government web resources and services.